This demonstration page uses our WeatherBlox Daily Observations layout. Learn more.

Left ArrowRight Arrow

38.20091, -84.87328

Hourly Observations for April 29, 2022

Temp ( °F °C ) Dew Point ( °F °C ) Humidity (%) Winds ( mph kmh ) Pressure ( in mb ) Visibility ( mi km ) Precip ( " mm )
12:53 am 00:53 Partly Cloudy 59 15 38 3.3 46 46 ENE 9 15 30.11 1020 10 16 0.00 0.00
1:53 am 01:53 Clear 57 13.9 38 3.3 49 49 E 8 13 30.11 1020 10 16 0.00 0.00
2:53 am 02:53 Mostly Cloudy 57 13.9 38 3.3 49 49 E 7 11 30.09 1019 10 16 0.00 0.00
3:53 am 03:53 Mostly Clear 56 13.3 38 3.3 51 51 ENE 7 11 30.09 1019 10 16 0.00 0.00
4:53 am 04:53 Mostly Clear 56 13.3 37 2.8 49 49 E 8 13 30.09 1019 10 16 0.00 0.00
5:53 am 05:53 Cloudy 56 13.3 35 1.7 46 46 E 7 11 30.09 1019 10 16 0.00 0.00
6:53 am 06:53 Cloudy 55 12.8 36 2.2 49 49 E 8 13 30.10 1019 10 16 0.00 0.00
7:53 am 07:53 Cloudy 55 12.8 36 2.2 49 49 E 7 11 30.11 1020 10 16 0.00 0.00
8:53 am 08:53 Cloudy 57 13.9 36 2.2 45 45 ENE 8 13 30.13 1020 10 16 0.00 0.00
9:53 am 09:53 Cloudy 58 14.4 36 2.2 44 44 E 10 17 30.11 1020 10 16 0.00 0.00
10:53 am 10:53 Mostly Cloudy 63 17.2 38 3.3 40 40 E 12 19 30.10 1019 10 16 0.00 0.00
11:53 am 11:53 Mostly Cloudy 64 17.8 40 4.4 41 41 E 10 17 30.09 1019 10 16 0.00 0.00
12:53 pm 12:53 Mostly Cloudy 66 18.9 42 5.6 42 42 ENE 9 15 30.08 1019 10 16 0.00 0.00
1:53 pm 13:53 Sunny 70 21.1 45 7.2 41 41 E 9 15 30.06 1018 10 16 0.00 0.00
2:53 pm 14:53 Mostly Cloudy 73 22.8 46 7.8 38 38 E 6 9 30.04 1017 10 16 0.00 0.00
3:53 pm 15:53 Partly Cloudy 72 22.2 45 7.2 38 38 Calm 30.02 1017 10 16 0.00 0.00
4:53 pm 16:53 Mostly Cloudy 71 21.7 47 8.3 42 42 S 6 9 30.01 1016 10 16 0.00 0.00
5:53 pm 17:53 Cloudy 70 21.1 48 8.9 46 46 E 6 9 30.00 1016 10 16 0.00 0.00
6:53 pm 18:53 Mostly Cloudy 70 21.1 48 8.9 46 46 ESE 3 6 29.99 1016 10 16 0.00 0.00
7:53 pm 19:53 Cloudy 68 20 49 9.4 51 51 E 5 7 29.98 1015 10 16 0.00 0.00
8:53 pm 20:53 Cloudy 67 19.4 49 9.4 53 53 E 6 9 29.99 1016 10 16 0.00 0.00
9:53 pm 21:53 Cloudy 67 19.4 48 8.9 51 51 E 7 11 29.99 1016 10 16 0.00 0.00
10:53 pm 22:53 Mostly Cloudy 66 18.9 48 8.9 52 52 E 8 13 29.98 1015 10 16 0.00 0.00
11:53 pm 23:53 Cloudy 66 18.9 46 7.8 49 49 E 6 9 29.98 1015 10 16 0.00 0.00

Powered by AerisWeather